Simultaneous Nadir Overpasses (SNOs) Predictions

Prediction of SNOs between METOP-B and TERRA Satellite Orbit:

Table of predicted SNOs for the next 14.0 days since TLE Epoch: 11/21/2015
Index Date (METOP-B) Time (METOP-B) Lat,Lon (METOP-B) SZA (METOP-B ) Date (TERRA) Time (TERRA) Lat,Lon (TERRA) SZA (TERRA ) Distance(km) Time Diff (sec)
1 11/22/2015 14:05:20 81.33, 16.47 104.56 11/22/2015 14:06:19 81.34, 16.43 104.58 0.74 59
2 11/22/2015 14:56:00 -81.34,-175.91 75.41 11/22/2015 14:55:46 -81.33,-176.01 75.43 1.71 14
3 11/25/2015 09:39:40 81.33, 82.72 105.09 11/25/2015 09:40:33 81.33, 82.82 105.12 1.58 53
4 11/25/2015 10:30:19 -81.34,-109.62 74.87 11/25/2015 10:29:59 -81.33,-109.60 74.88 0.64 20
5 11/28/2015 05:13:58 81.34, 149.33 105.61 11/28/2015 05:14:45 81.34, 149.45 105.65 2.22 47
6 11/28/2015 06:04:38 -81.34, -42.97 74.35 11/28/2015 06:04:12 -81.34, -42.94 74.35 0.62 26
7 12/01/2015 00:48:18 81.33,-144.50 106.02 12/01/2015 00:48:59 81.33,-144.45 106.04 1.11 41
8 12/01/2015 01:38:57 -81.34, 23.63 73.88 12/01/2015 01:38:25 -81.35, 23.57 73.90 1.13 32
9 12/03/2015 20:22:36 81.34, -77.59 106.47 12/03/2015 20:23:11 81.34, -77.71 106.47 2.18 35




NCC Satellite Simultaneous Nadir Overpasses (SNOs) Prediction Service
